Tracking 30990 objects as of 9-Jul-2025
HD Live streaming from Space Station
objects crossing your sky now

ARIANE 5 DEB

Track ARIANE 5 DEB now!


NORAD ID: 43382
Int'l Code: 2008-030E
Perigee: 272.1 km
Apogee: 32,344.1 km
Inclination: 1.6 °
Period: 566.5 minutes
Semi major axis: 22679 km
RCS: Unknown
Launch date: June 12, 2008
Source: France (FR)
Launch site: FRENCH GUIANA (FRGUI)

Note: This is SATELLITE DEBRIS
Your satellite tracking list
Your tracking list is empty




NASA's NSSDC Master Catalog

Two Line Element Set (TLE):
1 43382U 08030E   25189.75245575  .00007358  00000-0  24470-2 0  9998
2 43382   1.5663 158.7108 7070845 311.4606   6.4156  2.54193517104616
Source of the keplerian elements: AFSPC